Starlink 5530

operational
NORAD ID: 56494 Int'l Des: 2023-064 Owner: SPXS Country: US Constellation: starlink
LEOCIRCULAR

Starlink 5530について

説明を読み込み中...

リアルタイム位置

3D地球を読み込み中...

次回通過

高度履歴

Altitude vs Time

uPlot chart will show altitude changes over time

軌道要素

1 56494U 23064AY 26072.29817780 -.00001833 00000-0 -14582-3 0 9992
2 56494 69.9985 95.3353 0004339 264.6452 95.4212 14.98334557156769
Epoch: Mar 13, 2026 • Age: 23 hours

現在のステータス

高度 582.4 km
速度 7.57 km/s
衛星直下点 51.21°N, 42.61°W
打ち上げ日 May 10, 2023
運用期間 2.8 years
タイプ internet

技術仕様

分類 Payload
質量 305.00 kg
乾燥質量 290.00 kg
総質量 305.00 kg
長さ 0.20 m
直径 2.80 m
スパン 9.00 m
形状 Box + pan
製造者 SPXS
バスタイプ Starlink
フェーズステータス In Orbit
所有者/国 SPXS/US

大規模コンステレーション

Loading constellations...